Location: Bednik
(45.3500°N, 16.3833°E)
Time: 21:30:59
(UTC+00:00)

CARTOSAT-1 - Pass Details

Date: 08 August 2020
Orbit: 616 x 619 km, 97.8° (Epoch: 22 September)

Event Time Altitude Azimuth Distance (km) Brightness Sun altitude
Exits shadow 20:20:06 43° 148° (SSE) 874 3.8 -18.9°
Maximum altitude 20:21:27 74° 75° (ENE) 650 3.5 -19.1°
Drops below altitude 10° 20:25:46 10° 351° (N) 1,997 7.0 -19.6°
Sets 20:27:58 0° 349° (N) 2,907 8.1 -19.8°
